Location: Akgöl Batakl???
(38.9482°N, 31.8837°E)
Time: 20:48:25
(UTC+00:00)

Cosmos 2098 Rocket - Pass Details

Date: 08 May 2026
Orbit: 346 x 838 km, 82.9° (Epoch: 6 June)

Event Time Altitude Azimuth Distance (km) Brightness Sun altitude
Exits shadow 19:45:42 34° 54° (NE) 1,203 4.5 -26.8°
Drops below altitude 10° 19:49:02 - 22° (NNE) 2,203 6.3 -27.2°
Sets 19:51:10 0° 16° (NNE) 3,009 7.2 -27.4°
